Flag for Switzerland Weather past 2 weeks in Delémont, Jura, Switzerland

Now
51 °F

Cool.


Feels Like: 51 °F
Forecast: 33 / 61 °F
Wind: 2 mph from Northwest

Location: Grenchen

Current Time: Apr 28, 2015 at 6:10:40 PM

Latest Report: Apr 28, 2015 at 5:00 PM


Visibility: N/A

Pressure: 30.14 "Hg

Humidity: 49%

Dew point: 33 °F

Location of DelémontLocation

Historic Weather in Delémont — Graph

°F

Delémont temperature yesterday

Maximum temperature yesterday: 68 °F (at 3:00 PM)
Minimum temperature yesterday: 48 °F (at 4:00 AM)
Average temperature yesterday: 58 °F

Past Weeks' High & Low Weather Summary

 TemperatureHumidityPressure
High73 °F (Apr 15, 5:00 PM)100% (Apr 17, 12:00 AM)30.51 "Hg (Apr 17, 12:00 AM)
Low36 °F (Apr 20, 7:00 AM)22% (Apr 22, 5:00 PM)29.47 "Hg (Apr 27, 3:00 PM)
Average53 °F67%30.07 "Hg
* Reported Apr 13 4:00 PM — Apr 28 4:00 PM, Delémont, Weather by CustomWeather, © 2015

Note: Actual official high and low records may vary slightly from our data, if they occured in-between our weather recording intervals... More about our weather records

Advertising

Delémont weather history for previous 24 hours

 ConditionsComfort  
Time TempWeatherWind HumidityBarometerVisibility
4:00 PM
Tue, Apr 28
51 °FCool.6 mph51%30.13 "HgN/A
3:00 PM50 °FCool.9 mph50%30.12 "HgN/A
2:00 PM49 °FCool.13 mph50%30.11 "HgN/A
1:00 PM48 °FCool.8 mph59%30.09 "HgN/A
12:00 PM49 °FCool.5 mph59%30.07 "HgN/A
11:00 AM48 °FCool.6 mph61%30.05 "HgN/A
10:00 AM48 °FCool.10 mph66%30.02 "HgN/A
9:00 AM46 °FCool.10 mph72%29.99 "HgN/A
8:00 AM46 °FCool.15 mph78%29.96 "HgN/A
7:00 AM46 °FCool.14 mph78%29.92 "HgN/A
6:00 AM46 °FCool.8 mph94%29.89 "HgN/A
4:00 AM47 °FCool.14 mph83%29.81 "HgN/A
3:00 AM48 °FCool.9 mph81%29.78 "HgN/A
2:00 AM51 °FCool.12 mph78%29.73 "HgN/A
1:00 AM53 °FCool.12 mph78%29.67 "HgN/A
12:00 AM56 °FCool.5 mph87%29.62 "HgN/A
11:00 PM
Mon, Apr 27
55 °FCool.7 mph92%29.60 "HgN/A
10:00 PM58 °FCool.6 mph81%29.58 "HgN/A
9:00 PM61 °FCool.3 mph66%29.54 "HgN/A
8:00 PM62 °FCool.2 mph64%29.50 "HgN/A
7:00 PM62 °FMild.7 mph63%29.47 "HgN/A
6:00 PM61 °FCool.14 mph60%29.47 "HgN/A
Weather by CustomWeather, © 2015

See weather overviewHow to use our weather pages